Theta_e
350 349 350 348 349 351 352 351 351 350 349 346 345 344 340 337 333 330 331 332 336 341 347 343 346 348 349 349 350 350 349 353 358 355 351 350 350 351 352 353 354 355 356 358 360 361 363 365 366 366 366 366 365 363 361 361 360 360 360 361 359 359 356 354 352 350 348 349 348 350 351 352 353 352
350 352 349 348 346 354 352 352 351 351 350 349 348 347 346 342 337 335 331 332 339 340 345 344 342 346 348 350 351 351 349 355 358 355 351 351 350 350 350 350 350 350 350 351 354 358 360 363 364 365 365 366 365 364 360 359 360 359 358 358 358 358 356 353 350 349 349 349 348 350 349 350 351 351
351 350 349 349 353 354 353 353 353 354 353 352 351 349 348 346 342 340 334 330 337 345 341 345 350 348 348 351 350 351 351 353 355 354 352 351 354 354 353 352 350 348 347 347 348 351 354 357 358 359 360 361 362 363 362 361 359 357 355 353 353 355 354 350 348 348 347 347 348 349 349 349 350 350
352 351 351 350 348 350 352 351 352 352 351 351 349 349 347 345 344 342 337 334 336 343 343 344 346 349 349 351 350 349 350 353 356 353 352 353 356 355 353 352 350 349 347 346 345 345 347 350 353 355 357 358 360 361 361 361 359 357 355 357 355 350 348 347 345 345 346 346 347 348 349 349 349 348
354 352 349 347 349 351 351 351 352 352 351 348 347 347 345 344 344 342 338 335 337 341 346 344 345 348 350 347 348 347 348 349 351 354 354 354 352 352 351 352 349 349 348 346 345 343 343 345 348 351 353 355 357 358 359 359 359 358 357 357 352 347 345 344 345 346 346 346 345 346 347 348 348 348
352 348 346 346 348 350 350 350 352 352 351 348 348 346 346 345 343 345 341 338 336 336 340 341 344 345 346 343 346 346 346 346 349 350 351 353 353 353 354 353 353 350 348 346 345 343 342 343 345 348 350 351 354 354 354 354 353 351 351 350 345 341 341 343 344 345 345 345 345 345 346 346 346 346
349 348 347 345 346 350 349 350 350 351 350 349 346 345 346 346 344 345 343 337 334 335 336 337 339 339 342 342 344 346 347 348 349 348 349 350 352 353 353 353 354 349 348 347 346 344 342 341 341 342 343 345 346 346 347 345 341 338 338 338 337 338 339 339 340 343 344 344 345 345 345 345 345 345
346 345 343 345 345 346 346 345 346 347 348 347 346 345 345 345 344 344 343 341 337 334 336 337 339 340 341 342 343 345 347 346 347 348 348 347 347 348 351 352 352 352 350 348 346 345 343 341 339 339 339 339 340 340 336 333 332 332 332 332 334 335 336 336 335 338 342 342 343 343 343 343 343 343
345 347 343 344 345 346 343 342 342 344 345 346 346 344 344 343 343 344 344 342 341 339 338 339 342 343 341 341 343 344 343 343 343 342 343 344 345 346 349 351 352 349 348 347 345 344 343 342 340 338 337 336 335 334 333 333 332 331 330 330 329 330 332 332 333 333 334 337 337 338 338 338 338 339
346 344 345 346 344 343 341 342 342 343 343 343 343 343 343 343 344 343 343 343 341 340 340 341 341 340 338 338 340 341 342 341 341 342 344 344 343 342 342 343 346 348 349 348 349 345 344 342 340 338 337 336 335 335 334 334 333 332 330 328 327 327 327 328 328 329 330 330 330 332 333 334 335 336
347 345 346 345 345 343 342 343 342 343 342 343 343 345 343 342 340 338 337 338 337 339 340 340 337 336 338 339 339 341 342 342 342 342 342 342 341 339 338 340 343 345 346 346 347 348 347 346 345 337 335 335 335 334 334 335 336 337 334 329 327 327 327 327 326 326 326 327 327 326 327 329 331 333
345 346 346 347 347 346 345 344 344 344 343 341 341 343 342 342 339 338 338 337 338 340 339 338 337 338 337 336 336 339 336 336 336 340 343 338 338 338 337 337 339 341 342 342 344 346 346 344 342 339 338 339 339 339 338 339 340 341 337 332 329 328 327 326 325 325 325 325 324 323 322 322 323 327
345 345 347 347 347 351 355 355 354 354 354 345 342 342 341 341 340 339 339 341 340 340 339 339 339 337 335 334 334 334 332 334 335 338 338 336 337 336 336 338 340 340 337 340 340 341 340 339 339 340 340 342 344 344 343 343 342 342 338 333 331 330 328 326 325 324 324 324 323 323 322 320 319 320
346 346 346 351 355 353 354 354 352 352 352 354 350 345 340 341 342 342 343 343 341 340 339 338 337 336 336 336 334 333 334 337 336 336 336 334 335 334 334 334 333 338 338 337 335 337 339 339 338 338 337 340 342 341 341 342 343 339 334 331 330 329 328 327 325 324 323 322 322 322 321 320 320 319
346 346 348 347 348 348 347 344 347 347 347 347 347 349 351 354 347 342 343 343 341 340 339 337 337 336 335 335 334 333 335 336 335 335 335 334 332 329 328 326 331 335 339 335 332 335 338 336 336 336 336 338 338 339 340 337 336 335 334 332 331 330 329 327 327 326 325 323 322 321 321 320 320 319
346 346 346 344 344 342 342 338 333 337 344 344 348 350 351 352 353 355 347 343 340 337 336 336 336 334 333 332 331 332 335 335 334 333 331 328 327 327 325 324 325 332 338 334 332 333 336 335 336 332 333 335 334 338 333 331 334 334 333 332 331 330 329 328 327 326 325 324 323 322 321 321 321 320
347 346 343 339 337 335 342 336 330 329 330 341 347 349 348 349 352 349 349 350 345 337 334 335 336 334 330 327 329 333 333 335 329 328 328 328 328 327 327 327 328 334 338 335 329 328 334 335 333 330 332 333 333 336 335 330 333 334 334 331 331 330 329 328 328 326 325 324 323 322 320 319 319 319
344 344 341 337 334 330 329 330 329 328 329 330 334 336 338 340 346 351 351 350 348 347 338 335 334 333 333 330 330 333 333 330 329 328 327 328 328 330 330 333 333 336 339 335 329 326 329 333 330 329 331 333 332 332 329 322 326 328 328 329 329 324 324 325 326 325 325 323 322 321 319 318 318 318
342 341 341 337 333 329 327 329 330 329 330 331 334 334 331 331 333 336 339 341 340 343 338 335 332 332 332 331 329 328 329 329 329 329 329 331 333 334 333 330 332 333 335 335 329 324 328 330 329 329 330 331 331 330 328 325 324 324 324 325 326 326 325 325 326 326 324 322 321 319 317 317 316 316
338 337 336 334 330 327 325 329 330 335 336 331 333 331 329 329 330 332 340 336 340 342 336 336 334 334 334 333 333 333 330 331 331 333 333 332 332 329 326 325 328 328 333 335 330 325 326 328 328 329 330 330 329 331 329 329 326 325 324 323 322 322 321 321 322 322 322 321 320 318 315 314 314 313
334 333 331 329 326 325 326 327 322 332 336 330 330 329 328 329 329 329 332 337 339 336 334 332 333 332 330 329 328 328 330 334 334 331 330 330 329 326 324 325 326 327 331 333 333 326 325 328 328 328 329 330 330 329 328 331 330 327 325 323 322 321 320 319 319 318 318 319 320 321 319 317 315 315
338 340 340 333 325 325 326 323 322 329 334 328 328 328 328 327 326 326 329 333 337 337 336 336 336 337 338 339 339 339 337 337 342 333 329 331 328 326 326 324 326 328 329 332 334 328 325 328 327 326 328 328 325 329 327 333 330 326 325 324 323 322 320 319 318 319 319 320 320 320 319 317 315 317
330 332 338 340 334 328 324 319 320 328 333 327 327 327 326 325 324 324 326 329 328 332 332 331 332 334 337 338 336 336 337 340 343 336 333 332 329 327 327 327 326 325 325 332 335 327 326 328 326 327 326 322 323 324 328 331 329 330 331 331 330 326 326 325 322 319 319 319 320 319 319 317 313 320
328 328 328 329 322 320 318 315 318 323 327 326 326 326 325 323 322 325 324 328 325 325 326 325 326 325 328 329 328 328 328 331 336 337 335 334 331 329 328 327 327 324 323 325 336 328 326 324 326 329 326 322 320 324 327 327 329 330 329 329 327 328 328 327 324 322 319 318 318 317 317 316 315 320
327 327 327 326 322 317 316 313 314 318 324 329 325 325 324 325 325 327 321 324 328 322 324 323 323 322 322 321 321 323 324 326 328 331 333 333 332 331 329 326 324 323 325 331 336 329 325 326 325 325 322 321 322 323 326 326 326 327 330 328 327 328 328 328 327 329 323 321 319 315 314 314 314 317
328 327 326 326 322 316 315 311 311 316 321 326 325 321 319 320 324 323 323 320 319 319 320 318 319 319 317 315 317 319 320 322 326 324 325 327 328 330 332 330 327 325 326 333 334 329 326 325 325 325 324 322 324 325 323 323 324 325 327 327 327 328 328 327 327 327 328 328 329 324 322 315 314 314
328 329 328 331 327 316 311 310 312 317 320 325 316 314 316 318 320 321 317 320 315 316 317 316 314 315 314 314 313 315 316 318 319 319 320 320 322 325 328 333 333 330 329 329 329 330 327 323 326 323 322 323 321 323 322 319 321 325 325 326 327 327 328 327 327 326 327 326 327 322 319 316 315 315
330 329 329 330 315 309 305 311 315 317 323 318 312 314 317 319 320 315 314 312 313 316 315 313 311 311 312 311 311 313 315 316 315 317 318 317 319 320 323 324 327 322 320 319 319 320 322 320 319 320 321 320 319 318 317 322 323 323 322 324 324 324 326 327 324 325 326 326 325 325 324 324 324 320
332 328 319 311 312 313 313 318 318 319 320 315 315 316 319 320 311 312 310 311 310 309 311 311 310 309 311 310 312 312 313 316 315 316 316 316 316 317 318 317 318 316 317 319 317 317 316 315 314 315 315 315 315 316 317 317 320 320 321 317 314 318 323 321 321 320 322 322 322 323 323 323 323 324
325 318 314 315 317 325 328 329 325 322 322 322 322 320 319 311 312 310 308 308 308 308 309 310 309 308 308 309 311 313 313 311 311 313 313 311 313 313 313 310 309 310 311 313 314 314 313 312 313 313 311 311 312 312 315 318 317 315 316 313 314 318 317 317 317 317 317 317 319 320 322 323 323 323
327 326 330 331 327 323 326 326 324 322 321 319 315 312 312 312 311 312 309 307 307 310 308 309 308 307 308 310 311 309 309 310 311 312 314 310 310 312 311 308 307 307 309 309 311 314 312 311 312 311 308 308 309 310 315 317 312 310 310 311 312 310 313 314 312 313 313 315 316 318 318 319 320 325
328 335 337 329 325 321 316 315 314 314 316 316 315 311 310 309 313 316 318 316 309 307 307 308 308 308 308 307 308 308 308 308 309 311 310 309 308 309 308 306 305 306 306 307 309 312 316 311 311 309 308 306 305 308 310 307 306 307 307 309 311 311 312 310 310 311 312 313 312 312 313 315 317 319
323 320 318 317 315 314 314 312 311 310 310 312 312 312 309 309 308 308 306 307 306 308 308 307 307 308 308 306 307 307 306 307 308 308 307 307 306 306 306 305 304 304 303 304 307 308 309 308 310 309 307 306 306 310 305 302 303 305 305 306 308 307 308 308 310 310 311 310 309 310 311 313 315 317
315 314 313 312 312 312 311 310 311 309 308 310 309 311 315 312 308 308 308 306 306 309 309 307 306 307 307 304 306 305 306 305 306 307 309 305 306 304 303 303 303 304 305 304 305 306 307 306 306 305 305 306 307 308 306 302 302 303 305 305 305 304 306 307 308 308 309 308 307 307 308 310 313 315
312 311 312 311 312 312 310 311 310 310 309 310 310 308 309 309 311 311 308 304 307 309 309 308 307 307 305 305 305 304 306 307 304 305 306 306 306 304 304 303 303 304 303 303 303 304 305 304 303 302 301 301 301 301 308 306 302 303 303 304 303 303 304 306 306 306 306 306 306 305 306 307 308 311
311 310 310 310 309 311 311 312 313 310 308 308 308 308 309 308 311 309 307 305 305 306 307 306 307 306 305 304 306 305 306 306 303 303 303 303 304 304 303 304 305 303 302 301 303 303 305 303 302 300 298 297 296 296 298 306 307 303 302 301 302 302 302 303 304 304 304 303 304 303 302 302 305 308
311 310 310 310 310 311 310 309 309 310 310 308 308 307 307 308 309 307 306 305 307 308 307 306 305 305 305 305 305 307 306 304 302 303 302 302 303 303 302 303 304 303 301 301 303 303 303 301 301 299 297 295 295 294 296 301 304 307 303 301 301 302 302 302 302 302 302 302 302 302 302 303 303 306
310 310 310 310 310 309 310 310 312 310 309 311 310 310 308 306 306 306 305 304 306 307 306 304 307 306 304 306 303 302 303 304 303 302 304 302 301 300 301 302 300 301 300 301 304 303 303 301 300 300 298 296 294 294 295 298 300 302 307 304 301 301 302 301 300 300 300 301 301 302 303 302 302 304
312 313 312 310 309 308 309 310 311 308 307 308 310 308 306 306 306 306 306 307 306 305 303 304 305 306 305 303 305 304 302 302 302 302 303 302 302 301 301 303 301 301 300 300 301 300 301 299 300 300 299 298 296 296 297 297 298 301 305 307 304 301 301 301 300 301 300 300 301 303 303 304 306 310
314 312 311 311 310 309 309 310 308 307 308 308 307 306 306 308 306 305 305 307 305 306 304 306 307 304 302 304 303 301 302 302 302 301 302 302 303 304 303 303 303 301 299 300 300 300 299 300 302 300 301 302 302 302 301 301 300 301 303 304 307 305 302 302 301 300 300 301 302 301 299 300 300 302
314 311 311 310 310 309 309 308 306 308 306 306 307 312 306 305 305 305 304 306 308 303 304 301 301 301 300 300 302 302 301 303 302 302 304 303 304 304 306 307 302 302 300 300 299 299 300 301 305 311 310 305 303 302 299 297 297 298 299 301 305 307 308 308 303 302 301 304 303 300 298 298 298 299
312 310 309 308 308 309 307 306 306 306 305 307 306 307 306 307 308 314 310 312 305 305 302 302 301 303 303 300 302 304 302 301 301 301 304 302 300 302 306 305 302 302 301 300 300 301 303 304 307 306 303 303 301 298 297 298 297 298 299 300 302 305 306 307 308 307 305 304 301 299 299 299 299 298
314 309 310 312 311 309 308 309 307 306 306 305 305 305 304 304 303 304 301 301 301 304 301 303 301 301 301 300 300 302 302 301 302 301 301 302 302 302 302 302 302 302 302 302 303 304 304 303 302 302 301 300 300 300 298 299 299 299 299 299 301 302 303 305 305 306 306 307 307 305 303 301 299 296
308 309 307 308 308 307 307 307 306 306 306 306 306 305 305 303 302 303 302 301 301 301 302 301 301 300 300 300 301 302 301 301 301 301 302 303 304 303 303 303 304 303 303 303 303 303 302 302 301 301 299 298 299 299 299 300 300 302 301 301 301 300 300 302 303 304 304 305 305 306 307 308 307 307
310 308 308 307 306 306 306 307 308 307 306 306 306 304 308 306 307 303 303 303 302 302 303 302 302 301 301 302 301 301 302 307 306 304 304 304 304 304 304 303 303 303 303 303 302 302 302 301 300 300 298 300 301 301 302 303 302 302 301 300 300 301 300 301 300 300 300 300 303 305 306 307 307 308
Wind_Speed
1 0 0 0 1 1 1 2 1 2 2 3 4 3 4 4 2 2 2 3 2 2 1 1 3 3 1 1 2 2 3 4 6 4 4 5 5 8 11 12 12 12 13 13 14 15 16 19 21 22 22 23 23 22 20 21 20 21 22 22 23 21 19 20 13 16 21 18 16 18 18 17 18 19
1 1 1 2 2 1 1 1 0 0 0 1 2 2 2 4 4 4 4 5 4 4 1 1 1 2 3 3 2 1 3 5 6 4 5 5 6 9 11 11 12 12 12 12 13 13 15 16 18 18 19 20 21 21 18 18 20 19 21 21 21 21 19 19 19 19 17 17 19 18 17 19 19 16
1 0 1 2 3 2 2 2 2 3 4 4 3 2 1 2 3 4 3 3 4 2 2 2 1 2 5 5 4 4 4 4 5 5 5 5 7 10 8 11 12 12 12 12 12 12 13 15 16 17 17 18 18 17 17 16 20 16 18 21 24 21 18 10 11 13 19 17 19 19 21 22 21 20
1 2 2 2 2 2 2 3 3 3 3 4 5 4 3 2 0 2 3 4 8 3 2 2 5 5 5 5 6 6 5 4 6 5 5 5 6 6 6 9 11 11 12 11 11 11 12 14 15 15 15 15 16 16 15 15 15 14 18 21 16 13 15 18 20 17 19 18 17 20 22 22 21 21
1 2 3 2 1 1 2 1 1 1 2 3 3 2 1 1 2 3 3 4 8 6 1 2 3 3 3 4 2 5 6 5 5 5 4 5 5 5 5 6 9 11 11 11 11 11 11 10 11 13 14 15 16 16 16 16 16 15 13 13 8 13 14 14 12 15 19 19 20 22 22 21 21 20
3 3 3 2 1 1 1 0 0 0 1 1 0 2 3 5 4 4 3 4 3 8 4 4 2 2 1 4 2 3 6 7 6 6 5 4 4 5 5 5 6 10 10 11 11 11 11 11 10 12 13 13 15 15 15 15 14 11 9 9 8 10 12 12 13 15 19 19 21 23 21 22 22 20
2 2 2 1 2 1 0 1 1 1 1 2 3 4 3 4 3 3 4 3 4 6 5 1 3 2 3 3 5 5 4 5 5 6 6 5 5 4 4 5 5 7 9 10 11 12 12 11 11 11 10 11 12 12 13 13 11 10 8 8 9 12 14 15 18 21 22 22 19 18 18 20 21 20
2 2 2 2 2 2 1 1 2 2 2 3 3 3 3 3 3 3 3 4 4 2 4 2 2 3 5 5 4 4 4 4 5 4 5 4 5 5 5 4 4 6 9 10 11 12 11 11 10 11 11 11 11 11 11 11 10 10 8 6 8 11 14 16 14 18 22 23 21 19 18 18 17 17
2 2 2 2 2 1 2 2 2 2 2 3 3 3 3 3 3 3 3 4 3 4 5 5 2 3 3 3 5 3 4 5 4 3 3 4 5 6 5 4 5 7 9 9 10 9 9 10 10 10 11 11 11 11 11 10 10 9 9 8 8 10 12 13 13 11 16 19 19 18 17 16 15 15
2 2 2 2 2 2 2 3 2 2 2 2 2 2 3 3 3 3 2 3 3 3 4 5 4 3 4 4 3 3 3 5 6 6 5 4 3 3 6 6 5 4 4 4 5 6 7 8 10 10 10 11 11 11 12 12 11 11 10 9 7 6 7 8 7 10 13 10 11 13 13 13 13 14
1 2 2 2 2 2 2 2 3 2 2 2 3 3 3 3 3 2 3 2 2 3 4 2 2 4 3 3 6 5 5 4 3 5 6 6 4 3 3 6 6 4 5 5 7 7 7 8 8 10 12 11 11 11 11 11 11 11 10 9 7 6 7 8 8 10 12 13 13 11 10 11 12 12
2 3 2 2 2 3 3 2 2 2 3 2 3 3 2 2 2 3 2 2 2 3 3 2 4 3 3 5 3 4 4 5 4 2 3 6 7 7 4 3 5 4 4 5 6 4 4 5 7 8 8 9 10 10 8 8 8 8 8 7 7 7 8 8 9 9 10 10 10 10 9 9 9 9
2 1 1 1 1 2 3 4 3 4 4 3 3 3 2 2 2 2 2 2 2 2 2 4 3 4 4 4 5 6 4 6 6 5 3 3 4 5 6 7 4 3 2 4 5 5 4 5 6 6 6 7 7 7 6 5 6 7 7 6 7 7 7 8 8 8 8 8 8 8 8 7 7 7
1 2 1 0 2 1 3 4 4 4 4 3 2 3 3 3 3 2 2 3 2 2 3 3 4 5 5 5 5 4 3 4 4 5 4 5 5 5 4 5 3 4 2 4 6 8 3 3 5 5 6 6 5 4 3 2 4 5 6 6 5 5 5 5 4 4 5 6 6 7 7 7 7 7
3 3 4 3 6 6 6 6 8 8 8 7 7 7 5 4 5 3 3 3 2 2 1 1 3 4 5 5 4 4 5 4 4 3 4 4 5 5 6 7 8 2 5 5 4 8 5 2 5 5 5 5 5 4 3 5 6 6 5 3 2 2 2 2 3 3 4 5 6 6 6 6 6 6
4 5 4 4 3 3 3 3 4 6 9 9 9 8 8 10 8 5 5 4 1 1 0 2 3 3 4 5 5 4 4 5 5 4 4 3 4 6 5 5 4 6 3 4 4 6 5 2 3 5 5 6 5 4 5 7 5 3 1 1 1 2 2 3 4 4 4 4 4 4 5 6 6 6
5 5 5 3 4 3 7 5 4 5 5 8 10 10 10 10 10 3 3 4 2 1 0 1 3 2 2 4 3 3 4 4 4 4 5 4 5 3 5 5 3 8 5 4 2 3 4 4 5 6 6 6 5 5 5 5 3 2 1 3 3 3 4 4 5 5 5 4 4 5 5 5 5 6
5 5 4 2 2 2 4 5 6 5 5 5 5 6 7 7 11 11 10 9 5 1 1 1 2 3 1 3 3 4 3 3 4 4 5 4 4 6 5 6 5 6 3 3 2 2 4 3 5 6 7 6 6 6 7 6 5 5 4 4 2 2 3 4 5 4 3 4 4 5 5 5 5 6
5 4 4 3 3 4 4 5 5 4 5 5 5 6 7 7 6 7 7 6 5 4 4 3 3 5 4 3 3 2 2 1 2 2 4 5 4 5 4 3 3 5 4 4 3 2 5 3 5 5 6 6 7 6 7 7 7 7 7 6 6 6 6 6 6 5 5 5 6 6 6 6 6 6
5 4 4 4 4 4 3 7 7 6 3 4 6 6 6 6 6 7 7 9 8 7 4 3 3 3 4 3 3 3 2 3 3 4 2 1 3 6 6 6 5 3 6 3 5 2 5 3 4 5 5 5 6 7 5 5 6 8 9 9 7 8 8 8 8 7 7 6 6 6 6 7 7 6
5 4 4 4 4 4 5 8 7 8 6 6 6 6 6 6 7 8 8 10 10 11 11 11 10 8 7 5 4 5 5 5 3 4 5 6 4 5 6 6 6 7 5 2 5 3 5 4 4 6 4 5 6 6 5 4 5 7 8 9 10 9 10 9 8 8 7 8 8 8 8 8 7 4
5 6 12 8 5 5 5 8 8 9 7 7 6 6 8 9 9 9 8 6 7 10 9 11 11 11 11 10 9 9 9 8 4 4 4 4 3 3 3 4 5 6 5 2 5 6 5 6 4 6 5 4 3 3 3 6 7 7 6 9 9 10 11 11 10 9 10 10 10 10 9 9 5 3
5 5 8 11 8 5 6 9 9 9 8 7 6 5 7 8 8 6 6 6 7 7 8 8 9 9 10 8 8 9 15 14 9 3 3 3 4 4 4 5 5 6 5 3 5 6 6 6 4 6 7 5 4 2 5 6 6 6 6 6 6 9 10 11 10 11 12 11 11 11 10 9 5 4
4 4 4 6 8 8 8 7 8 9 10 8 6 6 7 7 7 5 5 8 7 7 7 6 7 7 8 8 8 9 9 9 8 6 5 4 4 4 4 5 3 3 3 3 5 5 4 2 6 5 2 5 6 5 3 6 7 6 5 5 5 8 9 8 8 10 9 10 11 12 12 10 8 4
6 5 4 3 5 6 6 6 8 9 10 9 7 7 6 3 1 3 7 8 11 6 6 6 7 7 7 7 7 7 8 8 8 8 7 6 5 4 4 5 4 4 5 4 5 4 3 4 5 5 3 1 3 6 6 5 4 4 5 6 7 7 6 7 5 6 8 9 10 11 11 11 11 8
5 4 4 3 2 3 3 5 8 10 11 13 8 8 10 10 11 8 5 6 6 6 6 6 6 7 7 8 8 8 8 8 9 8 8 8 7 6 4 4 5 5 8 11 12 6 4 4 7 8 7 6 6 6 7 8 6 4 5 6 6 7 6 7 6 6 6 6 6 6 8 9 9 12
5 3 3 3 5 3 6 9 11 11 15 12 10 15 14 14 14 10 7 6 7 7 6 6 7 7 7 7 8 8 8 8 8 8 8 8 8 8 8 9 7 5 5 7 8 7 5 3 5 6 6 6 7 7 7 7 8 10 9 9 8 7 7 6 7 7 7 7 6 9 8 7 6 7
5 4 3 3 3 7 9 12 15 16 14 11 14 14 14 13 10 7 7 7 6 6 7 7 7 7 7 7 7 7 7 7 7 6 7 8 8 8 7 8 8 7 7 8 8 8 7 5 5 5 4 5 7 7 9 7 7 7 8 8 6 7 6 7 7 8 8 7 6 6 6 7 6 3
4 5 6 5 4 6 9 14 15 14 14 15 13 13 13 11 6 7 6 6 6 7 7 6 6 7 6 5 5 5 6 6 8 7 8 8 8 7 5 4 6 7 6 6 7 6 6 5 6 6 6 6 6 6 6 6 6 7 8 9 8 9 7 7 7 8 8 7 7 7 7 6 6 5
7 7 7 7 5 6 9 9 8 7 9 14 14 14 11 6 6 6 6 6 6 6 6 6 6 5 6 6 6 5 6 7 8 6 7 8 9 8 8 9 9 7 7 7 8 9 10 9 8 7 8 9 6 6 7 7 7 7 7 8 8 6 5 8 8 8 8 9 9 8 7 6 6 5
4 3 3 7 11 13 17 15 13 10 10 8 8 6 6 6 6 5 5 5 5 4 5 5 5 4 6 5 7 8 7 7 8 7 7 7 7 8 7 6 9 11 10 10 10 10 10 10 9 9 9 8 7 7 6 6 8 9 8 8 8 8 9 10 9 9 8 9 9 8 7 6 7 5
4 6 10 11 8 9 9 7 5 5 6 6 5 6 5 6 5 6 8 6 4 3 2 2 3 4 5 7 7 7 7 7 7 7 6 7 7 7 7 8 8 7 9 10 9 10 10 9 8 8 7 6 6 6 6 7 7 8 9 10 9 8 8 9 10 11 10 8 8 9 9 8 8 8
9 8 8 7 7 6 7 6 5 5 6 5 5 4 5 5 5 4 4 4 4 3 4 6 6 6 6 6 6 6 7 7 6 6 6 7 7 7 7 8 7 8 9 9 8 8 7 7 6 6 6 5 6 4 7 9 9 8 8 8 8 8 9 9 9 10 11 10 10 9 9 9 8 7
9 8 7 6 6 5 5 5 5 5 5 5 5 4 3 1 1 1 2 3 3 3 4 5 5 5 5 6 5 5 5 6 6 6 6 6 6 7 7 7 7 6 6 6 7 7 7 7 6 5 5 5 2 3 5 7 8 8 7 6 7 8 8 9 9 10 9 7 8 9 9 10 10 9
8 8 8 6 5 5 5 5 6 5 4 2 3 1 0 0 0 1 1 2 2 3 3 3 2 3 4 4 4 5 4 5 5 5 5 5 5 5 5 6 6 6 6 6 7 6 6 7 8 8 9 9 8 2 6 7 8 9 8 7 7 7 8 8 8 9 9 9 8 9 9 9 10 10
7 7 7 6 5 5 6 4 3 3 2 1 1 2 1 1 1 0 1 1 1 2 1 1 1 3 3 4 3 3 3 2 4 4 5 5 5 5 5 5 4 4 5 5 6 6 5 6 6 6 7 8 8 11 10 9 8 4 6 8 8 9 8 7 7 7 8 9 8 7 8 9 10 11
7 6 6 6 4 5 6 4 5 1 0 0 0 1 2 3 3 2 2 2 1 1 1 1 1 1 2 1 2 1 1 3 3 4 4 4 4 3 3 3 3 3 5 6 5 5 4 5 5 5 5 6 6 5 7 8 11 9 3 5 6 7 9 8 8 7 7 7 7 7 8 8 8 10
7 6 7 6 6 5 4 4 3 2 0 0 1 1 1 2 2 2 1 1 0 0 1 1 1 0 0 0 2 1 1 1 2 3 3 3 3 3 3 3 5 5 5 6 5 5 5 5 5 5 4 6 6 6 7 5 6 9 11 6 6 7 7 8 8 9 8 7 6 7 7 8 9 9
7 7 6 6 6 5 4 3 2 2 1 1 2 3 2 3 4 3 1 1 0 0 1 1 0 0 0 0 0 0 0 1 3 3 3 3 3 3 3 3 4 4 4 6 6 6 6 5 6 5 5 6 6 7 6 6 6 7 11 14 8 6 7 7 8 8 8 9 8 7 5 6 8 12
5 5 5 5 5 4 4 3 3 2 2 2 2 3 6 5 4 3 2 1 0 0 1 0 0 0 0 0 0 0 0 1 1 2 3 4 3 3 3 3 4 4 3 5 6 6 6 6 7 6 6 6 7 7 6 6 5 6 7 9 12 9 8 7 8 8 8 7 7 8 9 8 8 8
5 6 5 6 5 4 3 2 2 2 3 2 2 2 3 4 3 3 3 2 1 1 1 1 2 2 2 3 2 2 1 2 3 3 3 3 3 3 5 5 3 4 4 5 5 6 6 6 8 13 9 6 6 4 4 5 7 6 7 7 10 11 11 10 8 7 7 8 6 7 7 8 8 8
5 6 5 3 4 2 2 3 2 3 2 2 2 2 1 1 2 3 1 1 1 1 2 2 3 3 4 4 4 3 3 3 3 3 3 4 5 5 6 5 5 5 5 6 6 6 6 5 6 6 4 5 6 6 6 7 8 7 7 7 7 9 10 11 14 12 8 6 6 8 7 8 7 8
5 5 4 3 4 5 5 4 4 4 3 3 4 3 3 2 1 1 1 1 2 2 3 4 5 5 6 5 6 5 5 5 4 5 5 5 5 5 5 5 5 6 6 6 5 5 6 5 4 6 6 5 4 5 7 7 7 7 7 6 7 6 7 10 11 12 12 11 8 6 5 6 7 8
5 5 6 6 6 5 5 5 5 4 4 4 4 3 3 2 1 2 2 2 3 4 4 4 5 5 6 6 5 5 6 6 6 6 6 6 6 6 5 5 5 5 5 5 5 4 5 5 4 5 5 6 5 6 8 8 8 7 7 7 6 6 8 8 8 7 8 9 10 11 12 11 9 11
5 6 6 5 5 5 6 6 5 5 5 3 3 4 2 0 2 5 6 6 6 6 6 6 6 6 6 6 6 7 7 7 7 6 6 6 5 5 5 6 6 5 5 4 5 5 4 4 5 4 4 5 6 7 8 8 9 8 7 7 8 8 8 7 7 8 7 7 7 10 13 14 15 16
Wind_Direction
187 208 205 152 190 207 157 124 156 165 179 181 180 173 164 165 188 258 288 285 255 288 198 190 245 209 131 95 203 214 243 263 255 261 267 265 265 262 259 259 266 272 273 272 269 265 264 264 264 265 262 261 261 257 254 249 240 235 235 237 237 234 219 233 233 220 217 225 237 242 240 239 233 230
210 271 270 227 234 208 133 157 241 192 208 220 219 221 196 156 181 196 228 270 238 260 311 162 256 306 335 325 291 220 229 251 252 246 249 256 256 263 268 269 265 265 267 268 268 270 269 270 272 271 269 267 268 269 260 257 259 258 260 257 261 254 239 222 225 228 227 215 223 232 238 243 245 243
179 4 2 16 72 28 20 358 0 5 13 355 340 358 123 192 176 179 180 269 284 194 240 276 216 282 304 304 307 313 302 282 264 253 250 250 248 255 260 260 261 264 266 265 266 267 271 273 273 273 273 271 272 275 277 269 267 263 262 261 257 265 284 292 278 242 238 230 232 229 228 232 232 228
136 112 99 65 58 20 35 32 23 28 34 39 35 32 40 38 52 132 164 219 269 244 214 273 295 288 287 310 316 307 304 286 291 287 273 262 261 263 265 269 271 273 277 281 279 275 276 278 281 282 282 282 283 283 280 275 269 260 257 259 259 248 257 255 246 234 235 238 235 238 235 234 233 235
79 93 98 72 53 5 66 22 1 37 63 68 79 94 304 244 170 147 178 228 268 291 176 206 254 294 328 308 282 301 300 308 312 304 285 283 278 273 270 273 277 280 283 286 288 288 283 279 278 283 283 283 283 284 285 285 284 284 275 264 236 241 231 233 249 235 224 224 232 237 242 240 239 237
98 128 136 163 173 178 158 268 301 34 88 112 201 205 220 236 209 195 176 226 253 280 321 320 305 286 278 280 262 282 310 312 313 309 301 285 279 280 281 281 283 285 290 294 295 294 291 288 282 285 285 281 286 289 292 294 296 296 286 280 262 233 234 230 225 236 245 229 222 230 234 239 243 240
153 130 154 165 179 181 192 255 255 256 210 194 216 245 234 233 215 197 195 188 242 270 290 295 319 308 320 290 295 308 294 292 297 300 303 308 306 296 291 290 286 288 292 295 297 297 296 293 289 285 280 276 280 279 281 285 285 282 279 280 279 269 255 230 221 226 240 244 229 223 223 229 237 240
166 161 139 198 199 213 225 248 270 261 247 224 227 239 250 244 241 210 198 204 212 241 289 306 317 304 308 296 283 288 290 285 298 291 297 306 305 304 304 299 298 299 300 299 299 297 293 287 284 282 281 279 278 276 274 275 277 276 271 251 264 270 267 263 236 220 222 232 242 240 237 238 240 242
167 169 188 204 205 197 217 267 270 274 269 238 230 236 247 238 245 232 204 213 203 240 267 289 280 294 281 266 285 293 312 312 298 293 299 307 317 318 316 315 305 301 300 297 295 292 287 286 286 286 286 286 286 289 290 286 280 277 275 261 220 226 243 256 267 243 220 220 231 241 244 246 245 241
176 175 201 203 201 196 215 256 259 269 269 271 252 254 256 246 236 235 231 220 226 242 259 282 304 316 314 316 301 300 324 317 315 317 314 315 320 328 327 317 306 304 305 310 306 296 293 290 289 286 282 282 284 285 286 287 288 289 285 278 275 260 248 250 242 264 275 260 234 231 239 245 248 252
169 194 209 208 194 204 220 244 257 256 266 269 263 247 246 226 230 253 255 259 274 277 290 295 290 302 293 292 317 322 331 308 292 303 313 320 321 323 325 318 318 316 310 292 275 274 280 288 292 292 292 289 284 282 282 285 289 294 298 300 287 257 244 239 227 220 227 236 245 245 233 235 242 247
213 207 214 220 210 205 223 229 248 223 248 248 264 275 267 251 233 252 258 273 284 295 315 313 314 302 310 325 295 301 334 342 334 331 309 315 324 326 322 281 300 305 318 313 321 306 306 305 304 305 307 305 302 298 297 296 296 296 292 286 269 252 233 228 230 228 227 234 240 247 252 251 250 251
216 243 237 220 190 220 231 248 243 226 228 215 260 278 258 274 261 273 288 288 290 293 296 296 287 309 317 314 323 334 340 337 311 305 323 296 299 306 319 315 292 245 279 312 314 313 323 321 321 329 328 319 321 319 323 309 302 290 290 276 258 248 237 228 226 231 239 245 251 258 265 268 269 267
194 173 148 253 220 126 62 49 40 4 334 313 246 250 258 264 266 263 275 272 272 289 296 306 318 319 325 324 324 312 291 292 300 318 328 325 316 326 314 293 276 302 356 351 333 316 311 305 316 333 329 317 326 305 318 282 274 287 284 279 288 295 300 302 287 264 260 261 264 265 264 265 265 267
115 75 77 60 63 51 30 11 7 2 1 2 353 337 316 257 220 212 236 246 246 242 259 320 317 309 307 310 310 308 306 313 313 304 322 320 332 348 347 338 323 347 34 349 338 312 320 359 335 329 332 330 331 327 309 317 308 309 354 348 303 276 276 271 257 254 249 246 251 257 264 264 265 263
112 109 89 66 44 42 43 29 1 353 357 2 355 352 347 348 331 244 213 229 224 185 155 311 300 296 297 308 322 319 338 334 333 332 343 329 332 332 335 312 307 289 8 340 322 298 303 8 356 347 337 339 335 313 306 335 352 13 68 131 147 183 206 220 230 237 239 248 257 268 271 273 272 270
122 120 98 75 44 4 14 17 3 5 354 352 358 2 7 359 350 331 252 283 298 137 100 301 304 286 281 319 303 334 337 333 325 334 340 331 326 311 309 294 303 310 340 342 324 296 309 3 356 344 332 340 335 328 307 321 318 304 248 200 183 178 187 201 220 221 221 216 228 237 248 261 274 285
121 117 110 104 51 17 19 11 10 6 357 353 359 16 26 25 25 34 32 42 70 88 198 230 276 284 269 291 306 341 1 359 348 341 322 321 327 323 307 297 289 289 337 338 276 306 314 356 1 344 326 334 332 323 312 314 312 310 306 297 309 220 224 222 225 235 233 245 247 249 257 269 277 278
103 103 104 96 68 34 17 14 9 4 348 355 21 43 42 35 28 26 22 17 3 358 14 325 292 301 300 301 325 342 23 324 287 270 280 295 295 291 289 301 297 314 349 1 27 336 315 345 2 329 322 329 322 315 316 330 333 327 321 318 311 295 286 278 273 262 251 248 251 256 250 246 250 263
77 82 82 82 63 41 28 13 8 1 14 38 54 55 44 37 31 27 12 10 14 6 347 352 345 324 332 346 325 331 323 307 289 309 316 314 349 357 359 344 323 333 325 21 32 345 320 318 352 312 309 319 314 313 323 331 337 321 315 315 311 299 290 289 282 275 267 256 252 250 246 244 242 241
76 70 67 75 78 55 41 15 353 11 57 55 55 55 50 43 40 18 360 352 6 9 21 30 29 17 11 354 324 308 273 281 284 334 5 7 350 6 356 334 347 334 326 353 15 346 309 327 328 307 307 311 302 304 323 332 337 329 321 311 305 299 295 290 286 278 269 264 258 253 252 251 249 247
73 86 85 78 67 60 47 16 11 25 55 60 53 51 50 45 34 11 352 351 9 7 22 24 18 18 19 25 11 5 0 357 31 31 358 326 347 4 1 328 323 311 320 334 11 350 308 322 326 324 306 314 288 312 343 348 345 344 325 312 304 301 297 289 284 283 283 276 267 261 254 255 251 235
65 53 63 68 68 70 52 33 23 35 58 65 57 55 61 54 41 4 338 14 17 17 21 19 15 13 8 12 8 3 2 360 8 9 347 333 13 352 337 333 335 339 334 322 25 349 322 338 326 0 334 331 296 326 350 339 327 327 327 322 318 306 303 297 293 285 275 269 266 262 258 251 227 245
70 68 65 53 53 51 42 35 45 55 68 77 68 64 62 55 38 342 4 29 31 27 28 20 20 16 7 10 4 3 1 0 358 353 354 348 343 343 338 340 345 301 288 279 12 356 299 5 322 342 324 314 320 315 352 331 326 317 323 333 330 323 327 327 319 309 293 276 271 267 258 246 214 230
108 93 68 63 56 42 40 41 52 68 74 76 70 63 66 70 320 17 34 20 26 23 22 18 17 16 11 10 7 3 1 2 357 357 357 359 349 336 324 325 324 298 268 286 7 15 328 317 306 334 328 302 283 318 322 311 293 313 332 337 330 330 332 323 319 316 316 307 289 272 265 253 222 212
109 117 128 127 95 51 50 56 58 63 71 68 70 68 69 56 50 49 38 30 25 18 18 17 19 17 12 9 8 3 360 354 352 351 351 354 352 347 319 290 309 325 334 336 355 347 333 351 344 337 328 328 315 319 319 323 313 317 327 331 341 332 331 327 328 325 324 319 325 316 293 270 242 226
135 144 145 144 131 94 61 60 56 59 70 68 66 62 53 48 42 41 34 29 25 20 16 21 22 16 13 9 5 360 356 348 350 349 351 355 357 356 0 12 19 3 338 354 12 14 18 335 331 346 332 329 328 325 323 326 325 330 342 355 348 338 335 343 341 335 329 326 320 324 323 308 278 260
140 141 152 148 116 66 55 58 69 77 78 74 65 59 56 50 46 40 37 31 24 26 24 22 18 13 7 8 5 356 345 347 342 346 6 6 9 13 16 30 35 25 19 19 15 17 14 4 344 344 334 342 339 333 325 316 313 334 343 340 340 336 339 351 345 341 340 335 331 328 333 327 314 269
142 146 135 121 83 75 80 86 86 79 78 77 72 65 58 54 44 44 41 34 31 35 23 18 15 9 360 353 350 343 351 351 7 9 6 7 14 12 26 42 36 23 18 8 11 7 13 12 358 345 4 6 358 328 328 317 329 348 346 346 349 335 330 346 346 343 335 336 333 329 321 309 303 294
126 122 114 105 98 76 76 84 85 87 83 79 73 66 59 49 50 47 46 33 42 33 22 21 15 356 347 346 341 357 5 15 8 358 7 6 10 2 4 8 11 10 13 6 10 10 13 14 12 5 8 1 353 347 343 342 7 353 351 352 331 306 327 344 343 335 338 334 328 319 305 299 285 290
109 147 99 77 74 71 75 83 89 86 81 71 63 52 47 46 43 50 59 62 51 36 26 18 3 351 345 346 12 6 5 6 1 357 10 17 8 2 349 10 12 2 356 4 13 18 19 14 14 19 19 349 343 359 348 4 5 354 349 342 347 344 329 333 337 339 337 330 322 314 312 313 309 303
100 102 95 84 74 80 76 74 66 63 64 69 69 60 48 45 35 39 45 52 46 30 20 358 355 0 7 14 2 6 13 13 7 1 15 20 15 16 8 28 16 0 2 5 11 13 18 12 7 9 21 2 346 330 0 16 10 352 341 340 340 336 344 346 338 335 335 329 331 336 326 324 320 320
85 89 85 85 77 71 81 78 71 65 68 65 61 65 60 40 30 33 50 54 30 12 25 25 16 12 3 6 3 14 24 21 14 3 19 19 22 15 26 31 17 12 5 1 2 8 10 5 358 1 2 6 348 2 22 3 352 350 347 340 340 343 345 345 345 337 335 342 342 334 329 324 323 317
90 84 89 83 92 86 81 85 83 85 84 78 68 62 74 62 22 24 37 52 36 27 29 21 30 19 19 15 12 18 27 16 14 8 23 15 17 29 21 20 13 6 10 359 358 356 351 354 352 353 359 5 352 27 42 17 344 339 339 335 348 345 341 341 340 340 343 341 328 331 333 331 325 324
88 97 93 95 94 104 102 94 85 69 66 79 101 130 229 268 279 350 6 349 23 49 30 10 9 19 32 27 21 30 20 24 8 8 12 16 18 27 17 18 4 3 359 355 354 346 349 351 354 356 358 358 359 67 107 47 345 340 338 347 350 341 338 337 336 337 340 341 348 341 333 331 329 325
90 95 103 98 94 89 79 75 80 88 89 71 139 158 167 246 276 135 310 306 24 85 71 4 8 22 37 41 39 33 23 27 19 7 13 10 15 10 11 13 360 350 344 343 332 329 341 344 358 6 5 1 1 347 345 16 2 331 347 342 340 337 332 332 329 329 340 342 340 339 338 329 320 318
101 97 96 96 86 85 92 97 95 95 183 239 139 139 186 208 239 236 248 334 315 104 155 102 50 23 30 35 39 31 17 35 16 7 6 356 358 8 1 348 346 337 341 325 320 320 335 341 347 3 1 356 354 337 310 313 334 334 4 336 328 329 326 327 328 334 334 329 328 335 326 317 317 314
108 103 99 102 108 109 111 116 129 131 170 242 305 2 332 290 297 309 8 335 9 25 48 75 78 54 353 3 72 36 16 357 13 349 337 335 341 338 330 329 328 324 316 311 321 321 323 326 336 336 351 341 326 323 319 314 323 324 324 329 327 322 320 326 332 333 325 322 318 317 319 322 319 316
108 117 124 127 127 124 123 146 134 129 112 25 16 358 3 33 42 33 42 4 325 356 48 68 5 212 197 308 69 119 64 1 353 329 317 311 303 297 308 301 312 306 318 317 316 315 322 319 315 316 320 319 315 300 292 300 302 297 307 311 312 318 321 326 320 321 323 323 321 313 296 284 285 300
119 119 127 126 141 154 162 164 145 127 84 68 74 112 98 97 103 100 102 149 152 141 149 183 226 231 256 267 226 228 213 234 258 273 279 279 291 290 287 286 292 295 300 305 309 309 314 309 305 301 295 287 277 278 265 263 264 283 288 297 299 306 311 323 320 321 316 314 313 325 327 332 337 332
120 110 129 149 161 165 152 137 103 108 101 94 94 92 111 134 142 163 178 191 170 157 172 231 236 221 220 231 231 194 217 248 250 259 265 264 265 269 278 283 282 278 278 282 283 287 291 282 286 296 301 301 298 312 329 323 313 306 298 292 295 299 300 306 309 315 309 309 314 318 323 328 324 325
132 140 148 143 142 151 115 127 146 117 118 137 136 141 178 185 190 190 186 187 201 197 206 220 234 234 238 237 238 232 226 236 247 254 262 261 263 266 269 272 274 275 264 271 271 271 270 279 295 305 302 309 309 317 306 303 303 304 295 290 292 298 299 304 307 308 303 295 316 323 317 323 339 335
133 143 141 137 138 144 151 153 153 152 173 177 177 191 185 195 233 217 241 241 236 232 230 240 237 235 245 246 244 237 243 257 251 252 257 259 257 262 264 260 260 266 266 268 274 275 284 292 302 304 305 303 291 299 297 298 296 295 296 299 300 304 304 303 302 302 300 295 289 279 287 301 327 323
141 130 142 142 133 141 151 158 175 188 183 186 193 194 191 184 203 223 230 266 288 284 284 277 275 269 269 270 269 271 266 265 263 262 265 267 266 266 268 271 272 277 275 272 275 277 278 294 295 299 306 297 294 300 298 302 302 304 305 303 303 309 309 310 307 302 291 290 296 298 294 291 281 275
146 140 139 153 159 167 175 185 186 191 195 201 199 206 210 227 17 18 19 16 13 2 358 351 345 338 335 330 329 316 304 299 299 293 289 288 283 280 274 279 284 279 278 282 291 292 301 301 295 296 284 291 298 297 295 299 304 307 307 309 313 311 307 307 311 312 313 312 303 305 307 307 310 315